Location: *
(49.1667°N, 11.4333°E)
Time: 21:41:49
(UTC+00:00)

Daily predictions for brighter satellites

Satellite Brightness Start Highest point End
(mag) Time Altitude Azimuth Time Altitude Azimuth Time Altitude Azimuth
Lacrosse 5 1.9 16:33:26 10° NW 16:38:32 84° NNE 16:43:37 10° ESE
Unknown 4.2 16:37:06 10° W 16:41:09 49° N 16:45:11 10° ENE
CSL-04 Rocket 4.3 16:36:57 10° SE 16:41:52 35° ENE 16:46:45 10° N
Cosmos 1844 4.3 16:36:28 10° SW 16:42:10 63° WNW 16:47:57 10° NNE
Unknown 4.2 16:38:47 10° WNW 16:42:50 49° N 16:46:52 10° ENE
YAOGAN 6 3.5 16:40:27 10° SE 16:43:35 28° ENE 16:46:41 10° N
YAOGAN 1 3.5 16:40:28 10° ESE 16:44:09 28° ENE 16:47:51 10° N
Unknown 4.2 16:40:27 10° WNW 16:44:29 48° N 16:48:32 10° ENE
Unknown 4.2 16:42:06 10° WNW 16:46:08 48° N 16:50:10 10° ENE
Cosmos 2263 Rocket 4.5 16:42:57 10° WNW 16:46:42 18° NW 16:50:28 10° N
Gbstr 26 Del rocket 4.3 16:41:26 10° WNW 16:47:04 68° SSW 16:54:02 10° SE
Unknown 4.2 16:43:47 10° WNW 16:47:50 48° N 16:51:52 10° ENE
Unknown 3.6 16:45:21 10° WNW 16:48:42 60° SSW 16:52:03 10° SE
Cosmos 1777 Rocket 4.1 16:44:00 10° NNW 16:49:15 87° WSW 16:54:27 10° SSE
Cosmos 1726 Rocket 3.8 16:45:11 10° SSW 16:49:33 75° W 16:53:55 10° N
Unknown 3.7 16:45:52 10° WNW 16:49:38 53° NNE 16:53:23 10° E
Unknown 4.2 16:47:07 10° WNW 16:51:09 48° N 16:55:08 10° ENE
CZ-4 R/B 2.0 16:47:23 10° SE 16:51:18 39° ENE 16:55:16 10° N
Meteor 1-11 4.3 16:46:08 10° N 16:51:56 72° ENE 16:57:44 10° SSE
Starlink (trailer) 4.2 16:48:47 10° WNW 16:52:49 48° N 16:56:43 11° ENE
FengYun 1-2 T 4.4 16:47:52 10° SE 16:53:19 53° ENE 16:58:43 10° N
Cosmos 1461 3.1 16:49:19 10° NW 16:53:24 74° SW 16:57:36 10° SSE
Unknown 4.2 16:50:29 10° WNW 16:54:31 48° N 16:58:21 11° ENE
EO 1 Delta rocket 4.5 16:51:08 10° SE 16:55:28 38° ENE 17:00:25 10° N
Unknown 4.2 16:52:12 10° WNW 16:56:13 48° N 16:59:59 12° ENE
ATLAS CENTAUR R/B 3.7 16:54:25 10° NNW 16:56:47 14° NNE 16:59:05 10° NE
Cosmos 489 Rocket 4.5 16:50:58 10° SSW 16:57:11 82° ESE 17:03:25 10° NNE
Cosmos 1833 Rocket 2.7 16:54:47 10° NNW 17:00:27 88° ENE 17:06:05 10° SSE
ATLAS 3B R/B 3.8 16:55:50 10° SSE 17:00:31 20° ESE 17:05:11 10° ENE
Unknown 4.1 16:57:11 10° WNW 17:01:13 48° N 17:04:45 13° ENE
Cosmos 1953 4.1 16:58:34 10° SW 17:02:19 36° WNW 17:06:07 10° N
Unknown 4.1 16:58:48 10° WNW 17:02:51 48° N 17:06:18 13° ENE
Cosmos 44 4.4 16:59:36 10° SSE 17:03:29 23° ESE 17:06:48 12° ENE
Unknown 4.1 17:00:29 10° WNW 17:04:31 48° N 17:07:54 14° ENE
FALCON 9 DEB 3.8 17:01:37 10° WNW 17:05:01 53° SSW 17:08:25 10° SE
Unknown 4.1 17:02:06 10° WNW 17:06:10 49° N 17:09:31 14° ENE
CENTAUR R/B 3.6 17:01:49 10° SSE 17:06:18 22° ESE 17:11:09 10° ENE
Unknown 4.1 17:03:49 10° WNW 17:07:51 49° N 17:11:06 15° ENE
Cosmos 292 Rocket 4.2 17:04:03 10° SSW 17:08:46 66° WNW 17:13:32 10° NNE
Cosmos 1242 Rocket 4.2 17:06:07 10° NNW 17:09:35 39° W 17:13:01 10° SSW
Unknown 4.1 17:05:35 10° WNW 17:09:38 49° N 17:12:48 16° ENE
SL-27 R/B 4.3 17:09:55 10° NNE 17:11:27 13° NE 17:11:27 13° NE
Cosmos 2084 Rocket 3.5 17:07:05 10° NW 17:11:32 82° NE 17:15:56 10° SE
Unknown 4.1 17:08:51 10° WNW 17:12:54 49° N 17:15:55 17° ENE
Unknown 4.1 17:08:55 10° WNW 17:12:58 49° N 17:15:59 17° ENE
Unknown 4.1 17:10:30 10° WNW 17:14:33 49° N 17:17:30 17° ENE
Falcon 9 debris 4.4 17:14:03 10° WNW 17:17:18 40° SW 17:20:33 10° SE
SJ 16-02 2.5 17:13:41 10° N 17:17:18 24° NE 17:19:25 17° E
Cosmos 1153 Rocket 4.5 17:11:15 10° N 17:17:21 62° ENE 17:23:26 10° SSE
Unknown 4.1 17:13:45 10° WNW 17:17:48 49° N 17:20:37 18° ENE
Unknown 3.6 17:14:49 10° WNW 17:18:42 61° NNE 17:21:17 20° E
Cosmos 2058 Rocket 3.9 17:16:37 10° SSW 17:20:53 55° WNW 17:25:11 10° N
Unknown 4.1 17:17:11 10° WNW 17:21:13 50° N 17:23:54 20° ENE
Cosmos 1300 3.2 17:18:45 10° SSE 17:22:14 35° E 17:25:46 10° NNE
Unknown 4.1 17:18:50 10° WNW 17:22:53 50° N 17:25:28 20° ENE
Abrixas rocket 2.0 17:19:57 10° WSW 17:23:01 72° S 17:24:36 26° E
Unknown 4.1 17:21:00 10° WNW 17:24:23 46° SSW 17:27:36 11° SE
COBE Rocket 4.0 17:19:20 10° NNE 17:24:31 89° WNW 17:29:32 10° SSW
Unknown 4.1 17:20:31 10° WNW 17:24:34 50° N 17:27:05 21° ENE
Envisat 3.3 17:20:46 10° S 17:25:50 73° WSW 17:30:57 10° NNW
Unknown 4.0 17:22:12 10° WNW 17:26:16 51° N 17:28:43 22° ENE
Unknown 4.0 17:25:32 10° WNW 17:29:36 51° N 17:31:53 23° ENE
Unknown 4.0 17:27:15 10° WNW 17:31:19 52° N 17:33:32 24° ENE
COSMO-SKYMED 1 2.5 17:27:09 10° NNE 17:31:31 80° ESE 17:35:52 10° SSW
CSL-04 Debris 4.1 17:27:20 10° SSE 17:32:48 82° ENE 17:38:19 10° NNW
Unknown 4.0 17:28:50 10° WNW 17:32:54 52° N 17:35:03 25° ENE
Unknown 4.0 17:30:26 10° WNW 17:34:30 52° N 17:36:35 26° ENE
Cosmos 1898 Rocket 3.7 17:29:23 10° NNW 17:34:35 52° ENE 17:39:32 11° SE
Cosmos 2082 Rocket 2.4 17:30:00 10° NNW 17:35:43 74° WSW 17:41:22 10° SSE
Unknown 4.0 17:32:11 10° WNW 17:36:16 53° N 17:38:16 27° ENE
CZ-2D R/B 3.4 17:33:16 10° SSE 17:37:00 50° ENE 17:40:47 10° N
Unknown 4.0 17:33:40 10° WNW 17:37:45 52° N 17:39:41 27° ENE
USA 238 DEB 3.6 17:32:12 10° SSW 17:38:54 78° SE 17:45:52 10° NE
USA 238 3.6 17:32:18 10° SSW 17:39:00 78° SE 17:45:58 10° NE
Cosmos 2058 3.0 17:35:37 10° N 17:39:47 56° ENE 17:43:54 10° SSE
Unknown 4.0 17:36:57 10° WNW 17:41:02 53° N 17:42:50 29° ENE
H-2A R/B 3.3 17:40:42 22° ENE 17:41:23 22° ENE 17:45:29 10° N
Unknown 4.0 17:38:39 10° WNW 17:42:43 53° N 17:44:27 30° ENE
Unknown 3.7 17:40:33 10° WNW 17:44:33 60° NNE 17:46:07 34° E
Unknown 3.9 17:40:30 10° WNW 17:44:36 55° NNE 17:46:14 32° ENE
Unknown 3.4 17:40:57 10° WNW 17:44:41 75° SSW 17:46:21 31° SE
Cosmos 1459 Rocket 4.0 17:39:14 10° N 17:45:25 60° ENE 17:51:39 10° SSE
Unknown 3.9 17:42:02 10° WNW 17:46:06 54° N 17:47:41 33° ENE
Cosmos 1076 Rocket 3.4 17:41:46 10° N 17:46:10 88° E 17:50:30 10° S
Cosmos 1766 Rocket 4.2 17:42:26 10° N 17:46:24 33° ENE 17:47:01 32° E
Unknown 3.9 17:43:40 10° WNW 17:47:45 54° N 17:49:16 34° ENE
Unknown 3.9 17:47:00 10° WNW 17:51:05 55° NNE 17:52:28 36° ENE
Cosmos 1939 Rocket 2.8 17:47:11 10° SSE 17:51:11 65° ENE 17:55:15 10° N
Unknown 3.9 17:48:38 10° WNW 17:52:44 56° NNE 17:54:02 38° ENE
IRS-1A Rocket 4.2 17:48:01 10° SE 17:53:23 57° ENE 17:58:49 10° N
Unknown 3.9 17:50:18 10° WNW 17:54:23 56° NNE 17:55:37 39° ENE
Unknown 3.9 17:52:00 10° WNW 17:56:06 57° NNE 17:57:16 41° ENE
DMSP B5D1-3 4.5 17:51:07 10° NNE 17:56:13 62° ESE 18:01:19 10° S
Unknown 3.7 17:53:12 10° WNW 17:57:16 60° NNE 17:58:19 43° ENE
In-Cosmos 22 Rocket 4.0 17:52:00 10° N 17:57:27 72° ENE 18:02:59 10° SSE
ATLAS 5 CENTAUR R/B 3.9 17:54:44 10° WNW 17:58:08 19° NNW 18:01:48 10° NNE
Cosmos 2061 Rocket 4.0 17:52:55 10° N 17:59:03 56° ENE 18:05:08 10° SSE
Unknown 3.8 17:55:21 10° WNW 17:59:27 58° NNE 18:00:27 44° ENE
Unknown 3.8 17:56:13 10° WNW 18:00:20 59° NNE 18:01:18 45° ENE
NOSS 3-2 (A) 3.4 17:54:52 10° SW 18:00:43 88° SE 18:06:32 14° NE
Unknown 3.7 17:57:03 10° WNW 18:01:10 61° NNE 18:02:06 47° ENE
Cosmos 2151 3.2 17:57:41 10° N 18:01:54 48° ENE 18:02:29 45° ESE
Unknown 3.7 17:58:53 10° WNW 18:03:01 62° NNE 18:03:53 48° ENE
Okean 3 Rocket 3.5 17:58:53 10° N 18:03:24 63° ENE 18:05:52 26° SSE
Unknown 3.7 18:02:01 10° WNW 18:06:08 61° NNE 18:06:52 51° ENE
Ariane Rocket 2.9 18:03:21 10° SSE 18:08:27 83° ENE 18:13:35 10° NNW
Unknown 3.7 18:05:21 10° WNW 18:09:28 62° NNE 18:10:03 55° ENE
Cosmos 1812 Rocket 4.2 18:05:21 10° SSW 18:09:43 57° WNW 18:14:10 10° N
Unknown 3.7 18:06:57 10° WNW 18:11:05 63° NNE 18:11:36 56° NE
Meteor 2-1 Rocket 4.0 18:05:50 10° S 18:11:19 75° E 18:16:57 10° NNE
Cosmos 468 Rocket 3.9 18:06:25 10° S 18:11:37 63° ESE 18:15:42 16° NNE
ADEOS Rocket 3.9 18:05:01 10° NNE 18:11:50 35° E 18:13:05 33° ESE
HJ-1C 3.8 18:13:17 51° N 18:13:17 51° N 18:15:56 10° N
Unknown 3.6 18:08:40 10° WNW 18:12:48 64° NNE 18:13:14 59° NE
Resurs 01 Rocket 3.9 18:15:51 12° NNE 18:15:51 12° NNE 18:16:18 10° NNE
Unknown 3.6 18:10:16 10° WNW 18:14:23 65° NNE 18:14:46 60° NE
Cosmos 2173 Rocket 4.0 18:10:00 10° N 18:16:17 85° W 18:22:26 10° S
Cosmos 1727 Rocket 4.4 18:10:12 10° SSW 18:16:18 63° WNW 18:22:27 10° N
Cosmos 2278 Rocket 3.5 18:12:36 10° WSW 18:17:55 39° NW 18:23:15 10° NNE
YAOGAN 1 4.2 18:16:10 10° SSW 18:20:08 35° W 18:24:09 10° NNW
Cosmos 990 Rocket 4.1 18:14:59 10° NNW 18:20:13 76° WSW 18:23:48 21° SSE
deb Kosmos-1763 4.4 18:16:39 10° NNW 18:19:42 55° N 18:19:42 55° N
Lacrosse 5 3.9 18:17:00 10° WNW 18:21:02 24° SW 18:25:04 10° S
Unknown 3.6 18:16:58 10° WNW 18:21:07 68° NNE 18:21:13 68° NNE
Cosmos 1864 Rocket 4.4 18:16:28 10° N 18:22:35 63° ENE 18:25:35 31° SSE
Unknown 3.6 18:18:39 10° WNW 18:22:48 69° NNE 18:22:49 69° NNE
Cosmos 1937 Rocket 3.3 18:17:56 10° NNW 18:23:07 90° W 18:25:12 37° SSE
Cosmos 2297 3.7 18:18:09 10° SSW 18:23:52 89° WNW 18:29:18 12° NNE
Unknown 3.6 18:20:18 10° WNW 18:24:25 70° NNE 18:24:25 70° NNE
Cosmos 2150 Rocket 4.4 18:19:30 10° NNW 18:24:42 46° ENE 18:24:42 46° ENE
Cosmos 858 Rocket 4.4 18:20:09 10° NNW 18:25:23 84° WSW 18:27:44 34° SSE
Unknown 3.6 18:21:57 10° WNW 18:25:59 70° N 18:25:59 70° N
CZ-4 R/B 3.9 18:23:01 10° SSW 18:26:27 24° W 18:29:54 10° NW
ARGOS 3.6 18:27:50 43° NE 18:27:50 43° NE 18:32:29 10° N
Unknown 3.6 18:23:37 10° WNW 18:27:36 71° N 18:27:36 71° N
NOSS 3-2 (C) 3.3 18:21:58 10° SW 18:27:51 89° SE 18:31:44 26° NE
Unknown 3.8 18:24:19 10° WNW 18:27:57 55° SW 18:27:57 55° SW
BREEZE-M DEB (TANK) 2.7 18:20:19 10° WSW 18:28:13 62° SSE 18:28:17 62° SSE
SJ-11-01 4.1 18:28:54 70° E 18:29:08 72° ENE 18:33:48 10° N
Cosmos 1802 Rocket 4.1 18:24:21 10° N 18:30:50 81° W 18:37:12 10° S
Unknown 3.7 18:26:56 10° WNW 18:30:47 69° NNW 18:30:47 69° NNW
Cosmos 2123 Rocket 3.9 18:26:17 10° S 18:32:27 63° E 18:38:38 10° NNE
Starlink (trailer) 3.8 18:28:36 10° WNW 18:32:23 68° NNW 18:32:23 68° NNW
Cosmos 1570 Rocket 3.9 18:28:57 10° SSW 18:34:15 70° ESE 18:34:59 61° ENE
Unknown 3.8 18:30:17 10° WNW 18:34:00 67° NW 18:34:00 67° NW
Unknown 3.9 18:31:59 10° WNW 18:35:38 65° NW 18:35:38 65° NW
ATLAS CENTAUR R/B 2.8 18:33:00 10° NNW 18:36:02 29° N 18:36:02 29° N
Cosmos 2233 Rocket 4.1 18:31:01 10° N 18:37:12 54° ENE 18:37:22 53° E
Cosmos 1892 3.4 18:34:39 10° NNW 18:37:37 49° NW 18:37:37 49° NW
Cosmos 1725 Rocket 3.9 18:34:30 10° N 18:40:51 83° E 18:43:50 34° SSE
Cosmos-2242 3.2 18:36:33 10° SSW 18:40:53 71° WNW 18:45:13 10° N
Unknown 4.0 18:36:57 10° WNW 18:40:24 60° NW 18:40:24 60° NW
Cosmos 372 Rocket 4.3 18:37:18 10° NNW 18:41:29 49° NNE 18:41:29 49° NNE
SL-24 R/B 4.4 18:36:51 10° NNE 18:49:12 - S 18:42:30 76° E
Unknown 4.1 18:38:34 10° WNW 18:41:57 57° NW 18:41:57 57° NW
Cosmos 44 3.6 18:39:33 10° SW 18:44:23 61° NW 18:45:15 51° N
Unknown 4.2 18:40:15 10° WNW 18:43:34 55° WNW 18:43:34 55° WNW
Unknown 4.2 18:41:51 10° WNW 18:45:10 55° WNW 18:45:10 55° WNW
Cosmos 1763 Rocket 3.4 18:40:56 10° SSW 18:46:15 88° WNW 18:47:27 55° NNE
CZ-2C R/B 4.0 18:48:12 40° NNE 18:48:12 40° NNE 18:52:18 10° N
Unknown 4.3 18:43:33 10° WNW 18:46:45 52° WNW 18:46:45 52° WNW
Unknown 4.4 18:45:19 10° WNW 18:48:27 50° WNW 18:48:27 50° WNW
ATLAS 3B R/B 2.5 18:43:36 10° SW 18:50:21 86° SE 18:52:29 47° NE
Cosmos 2298 Rocket 4.1 18:49:55 10° NNW 18:54:40 70° N 18:54:40 70° N
CENTAUR R/B 2.5 18:49:51 10° SW 18:55:57 85° NW 18:58:23 44° NE
SJ 16-02 2.3 18:51:55 10° NNW 18:56:05 43° WSW 18:56:28 42° WSW
Cosmos 2016 Rocket 4.5 18:55:21 10° NNW 19:01:32 59° W 19:07:42 10° S
SPOT 3 Rocket 3.8 19:05:58 66° NW 19:05:58 66° NW 19:10:31 10° NNW
Meteor 2-3 Rocket 4.3 19:03:43 10° N 19:07:59 50° N 19:07:59 50° N
Cosmos 2227 Rocket 4.4 19:12:20 10° N 19:14:09 14° NNE 19:14:09 14° NNE
Cosmos 2297 Rocket 4.4 19:16:39 10° N 19:18:26 15° NNE 19:18:26 15° NNE
H-2A R/B 2.7 19:21:19 56° NW 19:21:19 56° NW 19:25:45 10° NNW
Cosmos 1943 Rocket 4.4 19:20:03 10° SSW 19:20:37 13° SSW 19:20:37 13° SSW
ATLAS 5 CENTAUR R/B 4.2 19:40:57 10° NNW 19:43:20 18° N 19:43:20 18° N
Resurs 01 Rocket 4.5 19:53:25 12° NNW 19:53:25 12° NNW 19:53:50 10° NNW
ADEOS Rocket 3.8 19:50:12 10° N 19:57:41 60° WNW 20:00:00 42° WSW
ATLAS 3B R/B 4.2 20:35:46 10° W 20:39:46 28° WNW 20:39:46 28° WNW
CENTAUR R/B 4.3 20:41:46 10° W 20:45:37 29° NW 20:45:37 29° NW
